Location: Aich
(49.7194°N, 12.1845°E)
Time: 17:03:36
(UTC+00:00)

Daily predictions for brighter satellites

Satellite Brightness Start Highest point End
(mag) Time Altitude Azimuth Time Altitude Azimuth Time Altitude Azimuth
USA 267 3.9 19:50:11 10° E 19:56:35 57° NNE 20:02:59 10° WNW
Meteor 1-21 Rocket 4.4 19:51:05 10° S 19:56:59 75° E 20:02:55 10° NNE
Alouette 2 Rocket 3.8 19:56:46 10° N 20:00:26 53° ENE 20:05:10 10° SSE
Cosmos 1953 Rocket 4.5 19:57:24 10° SSE 20:01:12 31° E 20:05:01 10° NNE
Cosmos 2322 Rocket 2.5 19:56:52 10° SSW 20:02:29 77° WNW 20:08:08 10° NNE
SL-08 ROCKET BODY 4.4 19:57:27 10° S 20:03:23 81° E 20:09:29 10° N
NOSS 7 (D) 3.8 20:01:42 10° SSW 20:04:29 55° SE 20:07:07 10° NE
Cosmos 2237 4.2 19:59:30 10° SSW 20:05:12 70° ESE 20:10:56 10° NNE
Cosmos 2084 4.4 20:02:11 10° NW 20:06:30 45° NE 20:10:47 10° ESE
Cosmos 1328 4.1 20:03:39 10° S 20:07:29 49° E 20:11:20 10° NNE
SAR-Lupe-2 4.3 20:06:07 10° NNE 20:09:26 34° E 20:12:43 10° SSE
Cosmos 1455 2.5 20:07:43 10° NNW 20:11:33 68° W 20:15:22 10° S
Cosmos 1825 Rocket 3.6 20:12:25 10° S 20:16:48 64° E 20:21:15 10° NNE
ATLAS CENTAUR R/B 1.8 20:15:00 10° NNW 20:18:36 45° NE 20:22:06 10° ESE
Cosmos 1703 3.2 20:17:30 10° S 20:21:22 79° E 20:25:17 10° NNE
COSMOS 2428 3.5 20:17:32 10° SSE 20:22:30 32° ESE 20:27:28 10° NE
Cosmos 1844 3.9 20:17:54 10° NNW 20:23:43 80° WSW 20:29:26 10° SSE
Cosmos 2322 3.9 20:20:43 10° S 20:26:15 54° ESE 20:31:50 10° NE
CZ-4B DEB 4.4 20:28:16 10° SSE 20:31:35 85° ENE 20:34:58 10° NNW
Cosmos 783 Rocket 4.5 20:27:10 10° SSW 20:32:25 83° ESE 20:37:39 10° NNE
Cosmos 1709 Rocket 4.1 20:26:42 10° S 20:32:58 77° E 20:39:22 10° NNE
NOSS 3-3 (A) 4.4 20:29:23 10° S 20:34:47 40° ESE 20:40:49 10° NE
NOSS 3-3 (C) 4.4 20:29:30 10° S 20:34:54 40° ESE 20:40:56 10° NE
Terra 2.2 20:31:40 11° SE 20:36:01 53° ENE 20:40:41 10° N
Atlas Centaur 2 4.2 20:33:17 10° SSW 20:36:12 13° S 20:38:47 11° SSE
Cosmos 2237 Rocket 3.8 20:33:11 11° SE 20:36:26 17° E 20:40:03 10° ENE
CARTOSAT-1 3.6 20:32:57 11° SSE 20:37:10 81° ENE 20:41:31 10° NNW
Cosmos 2333 4.2 20:32:28 10° SSW 20:38:02 64° ESE 20:43:42 10° NE
Cosmos 2219 Rocket 2.5 20:33:10 10° S 20:38:27 46° ESE 20:43:47 10° NE
Cosmos 2360 Rocket 2.5 20:34:44 10° SW 20:40:22 72° WNW 20:46:04 10° NNE
IGS 5A 4.2 20:36:23 10° S 20:40:26 49° W 20:44:30 10° NNW
Cosmos 1538 Rocket 4.4 20:36:13 10° S 20:41:18 46° ESE 20:46:23 10° NE
Cosmos 2333 Rocket 2.3 20:42:39 10° S 20:48:12 58° ESE 20:53:50 10° NE
Cosmos 1315 Rocket 2.9 20:46:47 10° N 20:50:54 73° ENE 20:54:13 15° SSE
ATLAS 2AS CENTAUR R/B 3.5 20:43:52 10° NW 20:51:25 52° NE 20:58:22 10° ESE
Resurs 01 Rocket 4.0 20:49:25 10° SW 20:52:34 19° W 20:55:43 10° NW
Cosmos-2242 4.1 20:50:09 10° NNW 20:54:16 42° W 20:58:22 10° SSW
Cosmos 1818 4.0 20:50:22 10° SW 20:55:46 68° NW 21:01:14 10° NE
Cosmos 773 Rocket 4.0 20:52:57 10° SSW 20:58:15 90° SE 21:03:36 10° NNE
Cosmos 2221 2.9 20:55:02 10° N 20:59:21 53° ENE 21:02:29 17° SSE
SL-16 R/B 4.3 20:54:46 10° WSW 20:59:44 30° NW 21:04:44 10° NNE
ERS-1 Rocket 3.3 20:56:51 11° S 21:01:40 62° WSW 21:06:41 10° NNW
GEOS 3 Rocket 3.8 20:57:09 10° NE 21:02:34 82° NW 21:07:58 10° SW
USA 215 3.3 20:59:22 10° ENE 21:05:53 62° SE 21:12:21 10° SW
Cosmos 2278 Rocket 2.4 21:03:02 10° NNW 21:08:43 68° ENE 21:13:09 17° SE
Cosmos 1892 3.7 21:07:02 19° SE 21:08:58 30° E 21:12:20 10° NNE
ATLAS 5 CENTAUR R/B 2.4 21:08:18 10° WSW 21:12:28 56° NW 21:17:14 10° NE
Meteor 1-11 4.5 21:07:09 10° SSW 21:12:46 71° WNW 21:18:29 10° N
Cosmos 1844 Rocket 4.1 21:08:25 10° NW 21:13:08 29° WSW 21:17:52 10° SSW
Gblst 52 Del rocket 4.4 21:09:31 10° WNW 21:15:10 67° SSW 21:20:33 14° SE
Cosmos 1943 Rocket 4.4 21:12:09 10° N 21:16:11 19° NE 21:20:12 10° E
SPOT 5 3.6 21:13:56 12° S 21:18:26 50° W 21:23:07 10° NNW
SL-16 R/B 4.0 21:18:56 12° ESE 21:20:51 15° E 21:23:48 10° ENE
Lacrosse 5 rocket 3.4 21:17:33 10° WNW 21:21:14 29° N 21:24:43 10° ENE
Cosmos 2056 Rocket 4.5 21:18:23 10° NNW 21:23:30 40° ENE 21:27:39 15° ESE
Nadezhda 3 Rocket 4.3 21:18:17 10° N 21:24:37 59° ENE 21:29:11 19° SSE
Cosmos 2058 3.2 21:25:00 22° SSE 21:27:23 50° E 21:31:25 10° NNE
Cosmos 2154 Rocket 4.3 21:23:04 18° SSE 21:27:29 52° E 21:33:29 10° NNE
BREEZE M DEB (TANK) 3.9 21:26:48 10° WSW 21:27:39 13° SW 21:27:39 13° SW
Cosmos 1408 3.5 21:29:05 23° SE 21:30:26 31° E 21:33:38 10° NNE
Meteor 2-17 Rocket 4.4 21:27:25 17° S 21:32:14 70° E 21:38:16 10° NNE
In-Cosmos 22 Rocket 4.1 21:29:55 18° S 21:33:48 66° E 21:39:05 10° NNE
Cosmos 2074 Rocket 4.0 21:29:15 14° S 21:34:46 88° E 21:41:02 10° N
TSX-5 3.6 21:31:57 10° NW 21:35:25 79° WSW 21:37:36 26° SSE
Cosmos 1076 Rocket 3.6 21:36:08 24° SSE 21:38:36 59° E 21:42:49 10° NNE
Cosmos 1680 Rocket 3.8 21:35:41 20° S 21:39:06 49° ESE 21:44:13 10° NNE
USA 267 3.3 21:34:04 16° SE 21:39:29 74° SW 21:46:05 10° WNW
CZ-4C R/B 4.3 21:38:45 10° NW 21:44:37 33° NNE 21:51:25 10° E
Cosmos 2084 4.5 21:41:54 10° WNW 21:45:58 35° WSW 21:48:05 22° S
Cosmos 1842 Rocket 4.3 21:41:55 10° NNW 21:46:05 45° W 21:49:02 18° SSW
JB-3 4.4 21:43:27 10° N 21:47:19 72° WNW 21:49:57 19° SSW
COSMOS 2455 4.2 21:43:07 10° NNW 21:48:36 34° NE 21:54:04 10° ESE
Cosmos 2151 3.9 21:47:18 24° SE 21:49:06 34° E 21:52:59 10° NNE
MTI 4.4 21:48:15 10° N 21:51:16 50° WNW 21:53:10 20° SW
Cosmos 923 Rocket 4.0 21:52:20 16° SSW 21:56:34 85° ESE 22:01:54 10° NNE
Cosmos 2327 Rocket 4.4 21:52:14 18° S 21:56:57 89° E 22:03:08 10° N
ATLAS CENTAUR R/B 2.8 21:54:22 10° WNW 21:57:13 21° WSW 21:58:26 18° SW
Cosmos 1825 2.6 21:58:09 31° SSE 21:59:31 46° E 22:03:10 10° NNE
ALOS 2 3.3 21:58:03 23° SE 22:00:27 44° ENE 22:04:39 10° N
Cosmos 2369 Rocket 4.0 21:56:16 10° NNW 22:00:50 25° NE 22:05:24 10° E
Cosmos 1151 Rocket 4.2 21:57:03 10° N 22:01:00 33° ENE 22:03:13 20° ESE
Cosmos 1980 3.6 21:56:55 16° SSW 22:01:27 76° ESE 22:07:07 10° NNE
Cosmos 44 4.1 22:05:14 25° SE 22:05:54 26° ESE 22:09:34 10° ENE
COSMOS 2428 3.5 22:01:02 10° SW 22:06:33 51° NW 22:12:06 10° NNE
Cosmos 371 Rocket 4.2 22:03:58 10° NNW 22:08:37 42° ENE 22:11:47 19° ESE
GP-B 3.9 22:05:15 10° NNE 22:09:27 40° E 22:11:23 26° SE
Cosmos 1295 Rocket 4.4 22:06:31 22° S 22:10:40 83° E 22:16:48 10° N
NOSS 0 Rocket 4.0 22:07:43 10° SSW 22:13:53 81° WNW 22:20:07 10° NNE
Terra 3.7 22:10:34 11° SW 22:14:05 22° W 22:17:47 10° NW
Cosmos 1624 Rocket 3.9 22:08:50 10° NNW 22:14:06 88° WSW 22:16:57 28° SSE
NOSS 3-4 (A) 3.9 22:07:49 10° NW 22:14:43 71° SW 22:19:47 23° SSE
NOSS 3-4 (C) 3.9 22:07:55 10° NW 22:14:50 71° SW 22:19:55 23° SSE
SL-4 R/B 2.7 22:19:54 18° ENE 22:19:54 18° ENE 22:21:16 10° NNE
Cosmos 2237 Rocket 2.2 22:14:58 15° SSW 22:19:44 87° WNW 22:25:29 10° NNE
Genesis I 3.1 22:18:36 30° SSW 22:20:24 68° SE 22:24:18 10° NE
CREW DRAGON DEMO-1 DEB 4.3 22:22:53 24° E 22:22:53 24° E 22:24:27 10° E
Cosmos 2344 3.6 22:16:02 14° SSW 22:22:27 64° SE 22:30:27 10° NE
Cosmos 2219 Rocket 3.6 22:17:22 10° WSW 22:22:32 37° NW 22:27:44 10° NNE
Elektron 1 4.5 22:21:22 18° SW 22:23:47 89° ESE 22:29:45 10° NE
Cosmos 1346 Rocket 4.4 22:28:04 19° ESE 22:29:07 22° E 22:32:09 10° NE
Thor Agena Rocket 3.7 22:24:48 10° NNE 22:29:56 72° WNW 22:33:18 21° SSW
DELTA 2 R/B (1) 4.4 22:25:48 10° SW 22:36:22 - ESE 22:30:03 28° S
Cosmos 2333 Rocket 3.9 22:27:47 10° WSW 22:32:50 32° NW 22:37:58 10° NNE
Cosmos 1515 Rocket 4.1 22:37:03 10° N 22:41:16 47° ENE 22:43:15 27° SE
BREEZE-M DEB (TANK) 1.9 22:38:28 10° W 22:41:22 41° SW 22:41:22 41° SW
ATLAS 2AS CENTAUR R/B 3.1 22:35:13 10° NW 22:42:32 54° WSW 22:46:25 26° S
EO 1 Del DPAF 3.9 22:39:25 10° N 22:43:03 48° WNW 22:44:59 24° SW
Cosmos 1766 Rocket 3.5 22:44:24 34° S 22:46:16 86° E 22:50:42 10° N
Cosmos 1328 Rocket 3.4 22:44:22 10° N 22:48:42 90° N 22:50:25 36° S
Gbstr 26 Del rocket 4.0 22:49:28 25° ESE 22:49:28 25° ESE 22:52:13 10° E
Aureole 2 Rocket 2.3 22:46:09 10° NW 22:48:54 47° WSW 22:48:59 47° WSW
USA 215 3.8 22:42:28 10° ENE 22:48:57 63° NNW 22:55:24 10° W
Okean 3 Rocket 3.6 22:47:02 32° SSW 22:49:06 79° WNW 22:53:33 10° N
Cosmos 1606 2.9 22:47:11 10° NNW 22:51:03 65° W 22:52:19 39° SSW
Cosmos 2278 Rocket 3.7 22:47:57 10° NW 22:52:18 23° WSW 22:54:59 16° SW
Cosmos 2297 3.8 22:48:33 10° NNW 22:54:16 69° WSW 22:57:11 29° S
Cosmos 2218 Rocket 4.0 22:50:54 27° S 22:54:35 80° E 23:00:55 10° NNE
Cosmos 304 Rocket 4.3 22:50:22 10° NNW 22:55:08 53° ENE 22:58:04 22° SE
Cosmos 2228 Rocket 4.1 22:52:34 10° N 22:56:56 40° ENE 22:59:19 23° SE
Cosmos 1420 Rocket 4.0 22:52:47 10° NNW 22:58:03 72° WSW 23:00:36 31° S
Cosmos 2366 rocket 4.0 22:56:35 27° S 23:00:16 83° E 23:06:39 10° N
Cosmos 1943 Rocket 2.3 22:55:17 10° NNW 23:00:59 73° ENE 23:04:40 22° SE
Lacrosse 5 rocket 2.3 22:57:10 10° NW 23:01:05 46° NNE 23:04:46 10° E
Cosmos 1633 3.2 23:01:11 35° SE 23:02:02 42° E 23:05:29 10° NNE
Landsat 4 4.4 22:59:25 10° NNE 23:03:01 41° E 23:03:59 34° SE
SL-16 R/B 2.1 23:00:47 27° SSW 23:04:02 82° ESE 23:09:46 10° NNE
Cosmos 2056 Rocket 4.5 23:00:40 10° NW 23:05:36 36° WSW 23:07:58 25° SSW
Cosmos 1959 Rocket 4.5 23:06:20 27° SSW 23:09:54 83° W 23:16:09 10° N
YAOGAN 11 4.0 23:09:09 35° SSE 23:11:00 86° ENE 23:15:27 10° NNW
Cosmos 1743 Rocket 3.9 23:12:36 34° SSE 23:14:12 53° E 23:18:26 10° NNE
Cosmos 332 Rocket 3.8 23:14:38 10° NNW 23:19:26 70° WSW 23:21:28 34° S
Cosmos 1048 Rocket 4.3 23:19:32 30° SSE 23:21:52 53° ESE 23:26:59 10° NNE
USA 267 4.3 23:21:24 22° SSW 23:23:14 25° SW 23:28:29 10° WNW
Meteor 2-3 Rocket 3.7 23:21:02 28° SSW 23:24:07 80° WNW 23:29:52 10° N
Helios 1A 3.3 23:24:53 36° SSW 23:26:16 54° W 23:30:23 10° NNW
Cosmos 405 2.9 23:24:42 10° NNW 23:28:16 80° W 23:29:08 49° S
Meteor 1-29 4.5 23:25:38 10° NE 23:28:26 24° E 23:29:10 22° ESE
Cosmos 1452 Rocket 3.8 23:27:40 10° NNW 23:32:49 55° WSW 23:35:06 31° S
CZ-4C R/B 3.1 23:27:14 10° NW 23:34:14 76° NE 23:42:25 10° SE
Meteor 2-6 Rocket 4.2 23:29:15 10° N 23:34:46 73° ENE 23:37:54 26° SSE
PSLV R/B 3.7 23:30:46 10° NNE 23:34:57 61° E 23:36:34 35° SSE
COSMOS 2455 2.9 23:28:59 10° NW 23:34:59 66° WSW 23:38:24 26° SSE
Cosmos 1340 3.4 23:34:23 29° SW 23:35:49 43° WNW 23:39:26 10° N
Cosmos 1110 Rocket 4.1 23:31:31 10° NNW 23:36:50 74° ENE 23:40:16 22° SSE
ALOS 2 4.2 23:35:27 19° WSW 23:36:59 23° W 23:40:30 10° NW
Cosmos 1408 Rocket 4.1 23:35:56 28° SW 23:37:56 49° WNW 23:42:14 10° N
SL-16 R/B 3.9 23:32:52 10° ESE 23:38:24 35° ENE 23:43:58 10° N
Cosmos 1151 Rocket 4.4 23:34:47 10° NNW 23:38:28 28° W 23:40:03 22° WSW
Cosmos 1603 4.2 23:36:25 28° SSE 23:39:03 47° ESE 23:44:32 10° NE
Cosmos 1727 Rocket 4.3 23:38:34 10° NNW 23:44:38 56° W 23:48:04 26° SSW
APEX 4.1 23:42:42 10° NW 23:44:21 22° W 23:44:21 22° W
Resurs 1-4 Rocket 4.0 23:41:20 10° NE 23:45:15 20° E 23:48:44 11° SE
Cosmos 2369 Rocket 2.1 23:39:53 10° NNW 23:45:30 78° WSW 23:48:49 25° SSE
Cosmos 1500 Rocket 3.6 23:44:49 34° SSW 23:46:40 77° W 23:51:05 10° N
Cosmos 44 3.8 23:43:38 16° WSW 23:46:50 49° NW 23:51:14 10° NNE
Cosmos 371 Rocket 4.4 23:44:42 10° NW 23:48:52 29° WSW 23:50:25 24° SW
SeaSat 1 3.9 23:45:11 10° NE 23:49:14 25° ESE 23:51:20 19° SE
ISS -1.6 23:51:00 16° ESE 23:51:00 16° ESE 23:52:18 10° E
Helios 1B rocket 2.4 23:49:36 10° NNE 23:53:46 79° ESE 23:55:23 36° S
